This is the latest recevied weather packets stored in our database for station/object DL3TR-13. If no packets are shown the sender has not sent any weather packets the latest 10 day(s).
| Time | Temp. | Humidity | Pressure | Rain* | Wind** | Luminosity | Snow |
|---|---|---|---|---|---|---|---|
| 1777785191 | 8.89° C | 77% | 1014 hPa | 0 mm | - | 30 W/m² | - |
| 1777784591 | 7.78° C | 78% | 1014.2 hPa | 0 mm | - | 26 W/m² | - |
| 1777783991 | 7.78° C | 79% | 1014.3 hPa | 0 mm | - | 21 W/m² | - |
| 1777783391 | 7.78° C | 79% | 1014.3 hPa | 0 mm | - | 18 W/m² | - |
| 1777782791 | 7.78° C | 79% | 1014.3 hPa | 0 mm | - | 14 W/m² | - |
| 1777782192 | 7.78° C | 79% | 1014.4 hPa | 0 mm | - | 11 W/m² | - |
| 1777781591 | 7.78° C | 80% | 1014.4 hPa | 0 mm | - | 5 W/m² | - |
| 1777780992 | 7.22° C | 80% | 1014.5 hPa | 0 mm | - | 0 W/m² | - |
| 1777780394 | 7.78° C | 80% | 1014.4 hPa | 0 mm | - | 0 W/m² | - |
| 1777779792 | 7.78° C | 80% | 1014.3 hPa | 0 mm | - | 0 W/m² | - |
| 1777779191 | 7.78° C | 80% | 1014.3 hPa | 0 mm | - | 0 W/m² | - |
| 1777778592 | 7.78° C | 80% | 1014.3 hPa | 0 mm | - | 0 W/m² | - |
| 1777777992 | 8.33° C | 79% | 1014.4 hPa | 0 mm | - | 0 W/m² | - |
| 1777777391 | 8.33° C | 79% | 1014.4 hPa | 0 mm | - | 0 W/m² | - |
| 1777776791 | 8.33° C | 79% | 1014.6 hPa | 0 mm | - | 0 W/m² | - |
| 1777776191 | 8.33° C | 79% | 1014.7 hPa | 0 mm | - | 0 W/m² | - |
| 1777775599 | 8.89° C | 79% | 1014.7 hPa | 0 mm | - | 0 W/m² | - |
| 1777774992 | 8.33° C | 81% | 1014.8 hPa | 0 mm | - | 0 W/m² | - |
| 1777774391 | 8.33° C | 81% | 1014.9 hPa | 0 mm | - | 0 W/m² | - |
| 1777773791 | 7.78° C | 84% | 1014.8 hPa | 0 mm | - | 0 W/m² | - |
| 1777773192 | 6.67° C | 84% | 1015 hPa | 0 mm | - | 0 W/m² | - |
| 1777772592 | 7.22° C | 81% | 1015 hPa | 0 mm | - | 0 W/m² | - |
| 1777771992 | 8.33° C | 80% | 1014.9 hPa | 0 mm | - | 0 W/m² | - |
| 1777771392 | 8.33° C | 77% | 1014.8 hPa | 0 mm | - | 0 W/m² | - |
| 1777770791 | 8.89° C | 78% | 1014.8 hPa | 0 mm | - | 0 W/m² | - |
* Rain latest hour (hover to see other rain measurements)
** Current wind speed in m/s (hover to see current wind gust speed)